{"data":{"norad_id":60012,"intl_designator":"2024-110A","name":"2024-110A","alt_names":[],"object_type":"PAYLOAD","status":"ACTIVE","operator":null,"country":"PRC","launch_date":"2024-06-06","launch_site_code":"JSC","launch_vehicle":null,"mission":null,"orbit_class":"UNKNOWN","rcs_meters":null,"size_class":null,"mass_kg":null,"dimensions":null,"purposes":[],"wikipedia_slug":null,"has_3d_model":false,"image_url":null,"decayed_at":null,"tle_current":{"epoch":"2026-05-25T05:51:20.959776Z","epoch_age_seconds":53707,"freshness":"FRESH","line1":"1 60012U 24110A   26145.24399259  .00005861  00000+0  33582-3 0  9991","line2":"2 60012  97.5682 237.0917 0007895 345.0103  15.0892 15.12964727108448","mean_motion":15.12964727,"eccentricity":0.0007895,"inclination_deg":97.5682,"raan_deg":237.0917,"arg_perigee_deg":345.0103,"mean_anomaly_deg":15.0892,"bstar":0.00033582,"rev_number":10844,"period_min":95.177367608254,"perigee_km":521.71266490705,"apogee_km":532.61613581822,"semimajor_km":6905.3014003626,"source":"CELESTRAK","updated_at":"2026-05-25T13:38:01.784293Z"}}}